[Date Prev][Date Next][Thread Prev][Thread Next][Date Index][Thread Index]

[jamsat-news:1334] jas2info #201



========================   ºÇ¿·¾ðÊó   ==============================

        Last updated ¡§Sat23SEP2000 ¡¡17:00 (JST) #201

====================================================================
   
  £±¡Ë¥¢¥Þ¥Á¥å¥¢ÄÌ¿®±ÒÀ±¾ðÊ󡡣ƣϥ·¥ê¡¼¥º¤Îµ°Æ»Í×ÁÇ¡¢¥Æ¥ì¥á¥È¥ê¡¢
¡¡¡¡¡¡£Ñ£Ó£Ï¤Î¾õ¶·Åù¤ò¤Þ¤È¤á¤Æ¤ß¤Þ¤·¤¿¡¥
¡¡¡¡¡¡
¡¡¡¡¡¡£Æ£Ï¡Ý£²£¹¤Î£¹·î£²£³Æü¡ÊÅڡˤΥƥì¥á¥È¥ê¤Ï£±£²¡§£°£°¡Ê£Ê£Ó£Ô¡Ë¤Î¥Ñ¥¹¤Ç¤Ï
¡¡¡¡JARL¤Î¥Û¡¼¥à¤Ú¡¼¥¸¤Î¤È¤¦¤ê¥¢¥Ê¥í¥°±¿ÍѤǤ·¤¿¡£º£¤Þ¤Ç´Ñ¬¤·¤¿¥Æ¥ì¥á¥È¥ê¡¼¤ÈʬÀÏ
¡¡¡¡·ë²Ì¤ò·ÇºÜ¤·¤Æ¤ª¤­¤Þ¤¹.¡¡¡¡¡¡

¡¡AS20255C1  23Sep2000
¡¡12:02-12:08(JST)
¡¡Freq.  - 435.789MHz

¡¡HI HI AE C7 88 55 8F D9 FF 00 00 00 34 3F 90 60 92 90 B0 98 BD B6 BA BD BA
¡¡HI HI AE C7 88 55 94 D9 FF 0D 00 00 6D 4B 75 60 92 90 B0 76 BD B6 BA BD BA 
¡¡HI HI AE C7 88 55 99 D9 FF 0D 00 00 37 30 89 60 92 90 B0 78 BC B6 BA BD BA 
¡¡HI HI AE 07 88 55 9F D9 FF 0D 00 00 5A 67 85 60 93 91 B0    BC B6 BA BD BA 
¡¡HI HI AE C7 88 55 84 D9 FF 0D 00 00 55 1B 83 60 93 91 B0 80 BC B6 BA BC BA 

¡¡AS20254C1  23Sep2000
¡¡10:12-10:27(JST)
¡¡Freq.435.805-.786MHz

 ¡¡                                   5A 4D 7F 60 93 91 B0 89 BB BC BC B8 B9 
¡¡HI HI AE 07 88 55 94 D9 FF 0D 00 00    43 7A 60 92 92 B0 69 BA BC BC B8 B9 
¡¡HI HI AE C7 88 55 9A D9 FF 0D 0O 00 74 5D 7B 60 93 91 B0 58 BB SB BC B8 B9 
¡¡HI HI AE 07 88 55 9F D9 FF 0D 00 00 38 7D    60 93 92 B0    BB BC BC B8 B9   
¡¡HI HI AE C7 88 55 84 DO FF 0D O0 00 5E       60 93 92 B0 7B BB BC BC B8 B9 
¡¡HI HI AE C7 88 55 89 D9 FF 0D 00 00       80 60 93 91 B0    BB BC BC B8 B9 
¡¡HI HI AE C7 88 55 91 D9 FF 0D 00 O0     6 7A 60 92 80 B0 7B BB BC BC B8 B9 
¡¡HI HI AE C7 88 55 94 D9 FF 0D 00 00          60 92 93 B0    BA BB BB B8 B9 
¡¡HI HI AE C7 88 55 9A D0 FF 0D 00 00       86 60 92 92 B0 71 BA BA BA B8 B9 
¡¡HI HI AE C7 88 55 9E D9 FF 0D 00 00 5F 3E 87 60 92 92 B0 7A BA BA BA B8 B9 
¡¡HI HI AE 07 88 55 89 D9 FF 0D 00 00 55 86 87 60 86 90 B0 85 BA B9 BA B7 B9  
¡¡HI HI AE C7 88 55 8E D9 05 0D 00 00 A2 5C 88 60 93 91 B0 9A BA B9 BA B8 B9 
¡¡HI HI AE C7 88 55 93 D9 FF 0D 00 00 59 6D 80 60 94 91 B0    BA B9 B9 B8 B9 
¡¡HI HI AE C7 88 55 99 D9 05 0D 00 00 96 2E 85 60 92 90 B0 7B BA B9 B9 B7 B9 
¡¡HI HI AE C7 88 55 9E D9 FF 0D 00 00 73 98 77 60 92 90 B0 7D BA B8 B9 B8 B9 
¡¡HI HI AE C7 88 55 83 D9 FF 0D 00 00 62 23 83 47 95 93 B0 7A BA B8 B9 B7 B9 
¡¡HI HI AE C7 88 55 93 D9 FF 0D 00 00 64 55 67 60 94 94 B0 9B BA B8 B9 B8 B9 


¡¡AS20227C1   20Sep2000
¡¡                                                                     
                                                                    ¡¡ B9 B6 B7 
¡¡HI HI AE 07 88 55 95 D9 FF 0D 00 00 39 93 65 60 5  93 91 8E 76 B9 B9 B9 B6 B7 
¡¡HI HI AE C7 88 55 9A D9 FF 0D 00 00 0D 90 61 60    93 91 85 59 B8 B9 B9 B5 B7 
¡¡HI HI AE 07 88 55 80 D9 0A 0D 00 00 06 49 BA 5A 60 92 90 9D 77 B8 B9 B9 B5 B7 
¡¡HI HI AE C7 88 55 85 D9 FF 0D 00 00 6D 59 65 60    92 90 8E 7B B8 B9 B9 B5 B7 
¡¡HI HI AE C7 88 55 8B D9 FF 0D 00 00    5D B3 5F 58           B B8 B9 B9 B5 B7 
¡¡HI HI AE C7 88 55 90 D9 0A 0D 00 00 6              95 91 B0 78 B8 B9 B9 B5 B7 

¡¡AS20201C1    29Sep2000
¡¡12:11-12:20(JST)

¡¡HI HI AE C7 88 55 98 C9 FF 0D 00 05 4  34 7E 4 
¡¡HI HI AE C7 88 55 82 C9 FF 0D 00 00 5  40 88 60 93            5D  BD BE BE 
 ¡¡¡¡¡¡¡¡¡¡¡¡¡¡¡¡¡¡¡¡¡¡¡¡¡¡¡¡¡¡¡¡¡¡¡¡¡¡¡¡¡¡¡¡¡¡¡¡¡¡  2 90 B0 78 BF BB BD BE BD 
¡¡HI HI AE C7 88 55 92 C9 FF 0D 00 00 5F 24 6E 60 92 90 9E 70 BF BA BD BE BD
¡¡HI HI AE C7 88 55 97 C9 FF 0D 00 00 65 4O E1 60 92 90 6E 6F BF BA BD BE BD 
¡¡HI HI AE C7 88 55 9C C9 FF 0D 00 00 32 45 81 60 92 90 B0 8A BF BA DD SE BD 
¡¡HI HI AE C7 88 55 81 C9 FF 0D 00 00 96 2A 6B 60 92 90 

¡¡------------------------¡¡£Æ£Ï-£²£¹¤Îµ°Æ»Í×ÁÇ¡¡------------------------------        
 
¡¡¡¡¢£ µ°Æ»Í×ÁÇ£±¡§¡Öjamsat¡Ýkeps¡§£±£°£³£±¡×¤è¤ê         
¡¡¡¡¡¡¡¡¡¡¡¡¡¡¡¡¡¡¡¡SB KEPS @ AMSAT  $ORB00265.N
¡¡¡¡¡¡¡¡¡¡¡¡¡¡¡¡¡¡¡¡¡¡2Line Orbital Elements 00265.AMSAT

¡¡HR AMSAT ORBITAL ELEMENTS FOR AMATEUR SATELLITES IN NASA FORMAT
¡¡FROM WA5QGD FORT WORTH,TX September 21, 2000
¡¡SEND SUBSCRIBE/UNSUBSCRIBE TO majordomo@amsat.org ONLY
¡¡BID: ORB00265.N

¡¡DECODE 2-LINE ELSETS WITH THE FOLLOWING KEY:
¡¡1 AAAAAU 00  0  0 BBBBB.BBBBBBBB  .CCCCCCCC  00000-0  00000-0 0  DDDZ
¡¡2 AAAAA EEE.EEEE FFF.FFFF GGGGGGG HHH.HHHH III.IIII JJ.JJJJJJJJKKKKKZ
¡¡KEY: A-CATALOGNUM B-EPOCHTIME C-DECAY D-ELSETNUM E-INCLINATION F-RAAN
¡¡G-ECCENTRICITY H-ARGPERIGEE I-MNANOM J-MNMOTION K-ORBITNUM Z-CHECKSUM

¡¡TO ALL RADIO AMATEURS BT

¡¡FO-29
¡¡1 24278U 96046B   00263.71902345 -.00000011  00000-0  26535-4 0 03655
¡¡¡¡2 24278 098.5782 159.1159 0351475 342.4802 016.4453 13.52737496202074¡¡¡¡

 ¢£ µ°Æ»Í×ÁÇ£²¡§¡Öjamsat¡Ýkeps¡§£±£°£³£²¡×¤è¤ê                    
¡¡¡¡¡¡¡¡¡¡¡¡¡¡¡¡¡¡SB KEPS @ AMSAT  $ORB00265.O
¡¡¡¡¡¡¡¡¡¡¡¡¡¡¡¡¡¡¡¡¡¡¡¡¡¡Orbital Elements  00265.OSCAR

¡¡HR AMSAT ORBITAL ELEMENTS FOR OSCAR SATELLITES
¡¡FROM WA5QGD FORT WORTH,TX September 21, 2000
¡¡SEND SUBSCRIBE/UNSUBSCRIBE TO majordomo@amsat.org ONLY
¡¡BID: ORB00265.O
¡¡TO ALL RADIO AMATEURS BT

  Satellite: FO-29
¡¡Catalog number: 24278
¡¡Epoch time:      00263.71902345
¡¡Element set:    0365
¡¡Inclination:      098.5782 deg
¡¡RA of node:       159.1159 deg
¡¡Eccentricity:    0.0351475
¡¡Arg of perigee:   342.4802 deg
¡¡Mean anomaly:     016.4453 deg
¡¡Mean motion:   13.52737496 rev/day
¡¡Decay rate:       -1.1e-07 rev/day^2
¡¡Epoch rev:           20207
¡¡Checksum:              303

-------------------¡¡¡¡FO-29¡ÊJAS-2)¤Î¥Æ¥ì¥á¥È¥ê¤Ë´Ø¤¹¤ë¾ðÊó¡¡¡¡----------------------¡¡
¡¡
£²¡Ë¾åµ­¥Æ¥ì¥á¥È¥ê¡¼¤ÎºÇ¸å¤Î¹Ô¤òʬÀϤ·¤Æ¤ª¤­¤Þ¤¹.
¡¡
¡¡¡¡AS20255C1  23Sep2000
¡¡¡¡12:02-12:08(JST)
¡¡¡¡Freq.  - 435.789MHz

¡¡HI HI AE C7 88 55 84 D9 FF 0D 00 00 55 1B 83 60 93 91 B0 80 BC B6 BA BC BA
 
¥Æ¥ì¥á¥È¥ê¡¡¡¡Æâ¡¡ÍÆ¡¡¡¡¡¡¡¡¡¡¡¡´¹»»»»ÃÍ¡¡Ã± °Ì  

¡¡£³£Ã	¼§µ¤¥»¥ó¥µ¡¼£Ú¼´=	41666.7	[nT]
¡¡£³£Ä	¼§µ¤¥»¥ó¥µ£Ø¼´	=	13235.3	[nT]
¡¡£´£Á	ÂÀÍÛÅÅÃÓȯÀ¸ÅÅή=	 1284.3	[mA]
¡¡£´£Â	£Â½¼ÊüÅÅÅÅή	=	 -118.4	[mA]
¡¡£´£Ã	£Âü»ÒÅÅ°µ	=	   15.8	[V]
¡¡£´£Ä	£ÂÃæ´Öü»ÒÅÅ°µ	=	    7.0	[V]
¡¡£µ£Á	¥Ð¥¹ÅÅ°µ¡¡	=	   17.3	[V]
¡¡£µ£Â	£Ê£Ô£ÁÁ÷¿®ÅÅÎÏ	=	  733.9	[mW]
¡¡£µ£Ã 	¹½Âβ¹ÅÙ£±	=	    8.9	[¡î]
¡¡£µ£Ä	¹½Âβ¹ÅÙ£²	=	   11.2	[¡î]
¡¡£¶£Á	¹½Âβ¹ÅÙ£³	=	    9.6	[¡î]
¡¡£¶£Â	¹½Âβ¹ÅÙ£´	=	    8.9	[¡î]
¡¡£¶£Ã	£Â¥»¥ë²¹ÅÙ	=	    9.6	[¡î]
¡¡
 ===========================¡¡¡¡FO-29¡Ê¤Õ¤¸£³¹æ¡Ë¤ÎQSO¾ðÊóÅù¡¡======================
   
¡¡£³)[jamsat-bb:5644] FO-29 in digital mode¤Ë¤Ä¤¤¤ÆÅê¹Æ¤¬¤¢¤ê¤Þ¤·¤¿¤Î¤Ç¡¢
¡¡¡¡¡¡Å¾ºÜ¤µ¤»¤Æ夭¤Þ¤·¤¿¡£

jo2oxl> Àè¤Û¤É¡¤0800JST¤Î¥Ñ¥¹¤Ç¡¤¥Ç¥¸¥¿¥ë¥â¡¼¥É¤Ç±¿ÍѤµ¤ì¤Æ¤¤¤ëFO-29¤Ë¥³¥Í¥¯¥È¤Ç¤­¤Þ
jo2oxl> ¤·¤¿¡¥
jo2oxl> ¥á¥Ã¥»¡¼¥¸¤ò½ñ¤­¹þ¤â¤¦¤È¤·¤¿¤Î¤Ç¤¹¤¬¡¤¤³¤ì¤Ï¤¦¤Þ¤¯¤¤¤­¤Þ¤»¤ó¤Ç¤·¤¿¡¥
jo2oxl> 
jo2oxl> uplink:145.87MHz
jo2oxl> downlink:435.91MHz
jo2oxl> 
jo2oxl> »ÈÍÑ¥½¥Õ¥È¡§Exterm
jo2oxl> 
jo2oxl> ¥í¥°¥¤¥ó¥á¥Ã¥»¡¼¥¸¡§
jo2oxl> C 8J1JCS
jo2oxl> cmd:*** CONNECTED to 8J1JCS
jo2oxl> 
jo2oxl> FO-29/JAS-2 Mailbox ver 1.01
jo2oxl> You can use Mailbox for 10 minutes.
jo2oxl> commands [B/F/H/K/M/Q/R/U/W/Y]
jo2oxl> Use H command for Help
jo2oxl> JAS2>
jo2oxl> 
jo2oxl> ¤¦¤Þ¤¯¤¤¤«¤Ê¤«¤Ã¤¿¸¶°ø¤Ï
jo2oxl> £±¡¥¥À¥¦¥ó¥ê¥ó¥¯¤¬ÉÔË¡¶É¤Îº®¿®¤ò¼õ¤±¤Æ¤¤¤ë¡¥
jo2oxl> £²¡¥¥À¥¦¥ó¥ê¥ó¥¯¤¬°ÂÄꤷ¤Ê¤¤¡¥¡Ê¥×¥ê¥¢¥ó¥×¤ò¤Ä¤±¤ì¤Ð¤¤¤¤¤Î¤«¡©¡Ë
jo2oxl> ¤³¤Î£²¤Ä¤Ç¤·¤ç¤¦¤«¡©
jo2oxl> 
jo2oxl> »ä¤Ï°ÊÁ°¤«¤é¤³¤Î¥á¡¼¥ë¥Ü¥Ã¥¯¥¹±¿ÍѤò³Ú¤·¤ß¤Ë¤·¤Æ¤¤¤¿¤Î¤Ç¤¹¤¬¡¤¤Ê¤«¤Ê¤«±¿ÍѤµ
jo2oxl> ¤ì¤ºµ¤¤ò¤â¤ó¤Ç¤¤¤Þ¤·¤¿¡¥
jo2oxl> ¤½¤³¤Ç¡¤¤³¤ÎÁ°¤Î¥Ï¥à¥Õ¥§¥¢¤ÇJARLµ»¸¦¤ÎÊý¤Ë¥ê¥¯¥¨¥¹¥È¤·¤Æ¤¤¤Þ¤·¤¿¡¥
jo2oxl> µ»½Ñ¸¦µæ½ê¤ÎÊý¡¹¤ÎÅØÎϤ˿´¤è¤ê´¶¼Õ¤¤¤¿¤·¤Þ¤¹¡¥
jo2oxl> 
jo2oxl> /EX

  [jamsat-bb:5659] Re: FO-29 in digital mode
jo2oxl> ºÆ¤ÓJO2OXLÍî¹ç¤Ç¤¹¡¥
jo2oxl> FO-29¤Î¥í¥°¤Ë¤Ä¤¤¤Æ¤Î½ñ¤­¹þ¤ß¤¬¤¢¤ë¤è¤¦¤Ê¤Î¤Ç¡¤»ä¤Î¥í¥°¤âup¤·¤Þ¤¹¡¥
jo2oxl> 
jo2oxl> C 8J1JCS
jo2oxl> cmd:*** CONNECTED to 8J1JCS
jo2oxl> 
jo2oxl> FO-29/JAS-2 Mailbox ver 1.01
jo2oxl> You can use Mailbox for 10 minutes.
jo2oxl> commands [B/F/H/K/M/Q/R/U/W/Y]
jo2oxl> Use H command for Help
jo2oxl> JAS2>r 1
jo2oxl> 
jo2oxl> *** DISCONNECTED
jo2oxl> cmd:C 8J1JCS
jo2oxl> 
jo2oxl> cmd:8J1JCS*** 8J1JCS busy
jo2oxl> *** DISCONNECTED
jo2oxl> 8J1JCS>BEACON:
jo2oxl> JAS-2    '00/09/15 01:39:58
jo2oxl> 9C 03 03 08 01 C7 00 02 00 00
jo2oxl> 00 00 A9 74 74 9A 3D 96 93 A1
jo2oxl> AA 52 A8 02 CE BC BD BD BA BB
jo2oxl> 
jo2oxl> 8J1JCS>BEACON:D5 02 00 09 00 00 CC 40 00 00
jo2oxl> 00 00 EF 5F 00 78 7B 80 8D 84
jo2oxl> 00 00 00 AE 7D D4 C7 00 00 00
jo2oxl> 
jo2oxl> 8J1JCS>BEACON:
jo2oxl> Total 01 user(s)
jo2oxl> Call sign  Remain time
jo2oxl> 
jo2oxl> JA5BLZ-0   08:36
jo2oxl> 
jo2oxl> 8J1JCS>BEACON:
jo2oxl> Total    2 File(s)
jo2oxl> 
jo2oxl>  No.  Date  UTC    To    From   Size   Subject
jo2oxl> 0004 01/12 11:34 ALL    7N1JVW     251 Hello !  From Japan
jo2oxl> 0
jo2oxl> 8J1JCS>BEACON:003 01/12 06:18 ALL    K7XQ        40
jo2oxl> 
jo2oxl> ̤¤À¤Ë7N1JVWÆ£ÅĤµ¤ó¤Î¥á¥Ã¥»¡¼¥¸¤ÏDL½ÐÍè¤Þ¤»¤ó¡¥
jo2oxl> ¥³¥Í¥¯¥ÈÍ×µá¤ÏÄ̤ë¤Î¤Ë²¿¸Î¡©
jo2oxl> 
jo2oxl> /EX
jo2oxl> ------------------------------------------------
jo2oxl> Ochiai Takushi(Íî¹ç Âî»Ë) <jo2oxl@jamsat.or.jp>
jo2oxl> QTH:ÀŲ¬¸©½ÙÅì·´À¶¿åÄ®
jo2oxl> JCG#18009
jo2oxl> GL#PM95KC
jo2oxl> http://www3.justnet.ne.jp/~dxer/
jo2oxl> tel & fax +81-559-31-6640
jo2oxl> de JO2OXL _.. .  .___ ___ ..___ ___ _.._ ._..
jo2oxl> 73 TU VA __... ...__  _ .._  ..._._
jo2oxl> ------------------------------------------------

 ===============================================================================
¡¡¡¡¡¡£´¡Ë£Ê£Á£Ò£Ì ¤Î¥Û¡¼¥à¥Ú¡¼¥¸¤Ë±¿ÍÑͽÄ꤬µ­ºÜ¤µ¤ì¤Æ¤¤¤Þ¤·¤¿¤Î¤Ç¤´¾Ò²ð¤·¤Þ¤¹¡¥
       ¡Ê http://www.jarl.or.jp/Japanese/3_Fuji/new/uy.htm ¡Ë

        ¢£ ¤Õ¤¸£³¹æ¡¿FO¡¼29/JAS-2 ¢£  
  ¡¡
¡¡¡¡¡¡¡¡¡¡¡ö¡ö¡ö¡¡±¿ÍÑͽÄê¤Ë¤Ä¤¤¤Æ¡¡¡ö¡ö¡ö
¡¡
¡¡¡¡¡¡£¹·î£±£¸Æü¡¡¡Á¡¡¡¡£¹·î£²£´Æü ¥¢¥Ê¥í¥°·Ï±¿ÍÑ 
¡¡¡¡¡¡£¹·î£²£µÆü¡¡¡Á¡¡£±£°·î£°£±Æü ¥Ç¥¸¥¿¥ë·Ï1200bps¥á¡¼¥ë¥Ü¥Ã¥¯¥¹±¿ÍÑ
¡¡¡¡£±£°·î£°£²Æü¡¡¡Á¡¡£±£°·î£°£¶Æü ¥¢¥Ê¥í¥°·Ï±¿ÍÑ 
¡¡¢¨£±£°·î£°£·Æü¡¡¡Á¡¡£±£±·î£°£µÆü¥Ç¥¸¥È¡¼¥«±¿ÍÑ
¡¡
¡¡¢¨²ÆµÙ¤ß´ü´ÖÃæ¤Î¥Ç¥¸¥È¡¼¥«±¿ÍѤ¬ÂçÊѹ¥É¾¤òÆÀ¤Þ¤·¤¿¤Î¤Ç¡¤½©¤Î¹Ô»ö¤ËÊ»¤»¤Æ
¡¡¡¡Ìó£±¥ö·î´Ö¥Ç¥¸¥È¡¼¥«±¿ÍѤò¹Ô¤¤¤Þ¤¹¡£¤Ê¤ª¡¤¥Ç¥¸¥È¡¼¥«¤Î²»À¼¥á¥Ã¥»¡¼¥¸¤Ï
¡¡¡¡¿·²»À¼¥Ç¡¼¥¿¤ò£Õ£Ð¤¹¤ëͽÄê¤Ç¤¹¤Î¤Ç¤´´üÂÔ¤¯¤À¤µ¤¤¡£

¡¡¡¡¡ö¤Ê¤ª¡¤±¿ÍÑͽÄê¤ÏÅÔ¹ç¤Ë¤è¤êÊѹ¹¤¹¤ë¤³¤È¤¬¤¢¤ê¤Þ¤¹¤Î¤Ç¤´Î»¾µ´ê¤¤¤Þ¤¹¡£

¡¡¾È²ñÀè¡¡¡§¡¡lab@jarl.or.jp

